User: anonymous   Login
Location: Unspecified
(0.0000°N, 0.0000°E)
Time: 02:25:01
(UTC+00:00)
Language:

Nimbus 4 - Orbit

View from above orbital plane
View from above orbital plane
View from above satellite
View from above satellite

Ground track
Ground track

The orbit data is extracted from the following two-line orbital elements,

1  4362U 70025A   19081.74697736 -.00000031 +00000-0 +23336-4 0  9993
2  4362 099.9849 352.1916 0007124 324.0751 094.5875 13.44601194401576
Epoch (UTC): 22 March 2019 17:55:38
Eccentricity: 0.0007124
inclination: 99.9849°
perigee height: 1087 km
apogee height: 1097 km
right ascension of ascending node: 352.1916°
argument of perigee: 324.0751°
revolutions per day: 13.44601194
mean anomaly at epoch: 94.5875°
orbit number at epoch: 40157

The dashed part of the orbit path shows where the satellite is in the earth's shadow,  

DLR